XPE928 LEPA-LEXJ

Flight info

Callsign XPE928
Flight time 1h 12m
Altitude 32000
Route DRAGO DCT PAPOS DCT UMURE DCT XIKEN DCT KARES DCT ARBEK DCT REBUL DCT GEMAS DCT ALOSU DCT GRAUS DCT POSSY/N0444F330 M601 PPN/N0415F270 M601 BLV
Aircraft B738/M-SDE2E3FGHIRWXY/LB1

Departure

Time 2026-04-26 18:25
Airport Palma de Mallorca Airport (LEPA)

Arrival

Time 2026-04-26 19:37
Airport Seve Ballesteros-Santander Airport (LEXJ)
Time Latitude Longitude Altitude Speed Heading
2026-04-26 17:37 39.55002 2.73730 43 ft 0 kts 239°
2026-04-26 18:08 39.55003 2.73733 43 ft 2 kts 239°
2026-04-26 18:09 39.55011 2.73749 44 ft 2 kts 239°
2026-04-26 18:09 39.55019 2.73766 44 ft 2 kts 239°
2026-04-26 18:09 39.55026 2.73783 45 ft 2 kts 239°
2026-04-26 18:09 39.55034 2.73800 45 ft 2 kts 239°
2026-04-26 18:10 39.55042 2.73817 46 ft 2 kts 248°
2026-04-26 18:10 39.55043 2.73836 46 ft 2 kts 287°
2026-04-26 18:10 39.55035 2.73853 45 ft 1 kts 321°
2026-04-26 18:10 39.55029 2.73858 45 ft 1 kts 334°
2026-04-26 18:11 39.55026 2.73860 45 ft 0 kts 330°
2026-04-26 18:13 39.55053 2.73839 46 ft 8 kts 328°
2026-04-26 18:13 39.55096 2.73804 47 ft 6 kts 328°
2026-04-26 18:13 39.55121 2.73785 47 ft 6 kts 332°
2026-04-26 18:14 39.55171 2.73804 47 ft 8 kts 44°
2026-04-26 18:14 39.55229 2.73807 46 ft 9 kts 329°
2026-04-26 18:14 39.55289 2.73762 43 ft 11 kts 330°
2026-04-26 18:14 39.55369 2.73702 38 ft 15 kts 327°
2026-04-26 18:15 39.55454 2.73630 29 ft 14 kts 328°
2026-04-26 18:15 39.55535 2.73567 25 ft 12 kts 329°
2026-04-26 18:15 39.55566 2.73543 23 ft 1 kts 329°
2026-04-26 18:15 39.55573 2.73538 23 ft 0 kts 329°
2026-04-26 18:17 39.55575 2.73536 23 ft 1 kts 329°
2026-04-26 18:17 39.55605 2.73512 21 ft 6 kts 328°
2026-04-26 18:17 39.55654 2.73514 20 ft 9 kts 40°
2026-04-26 18:17 39.55695 2.73587 18 ft 10 kts 56°
2026-04-26 18:18 39.55739 2.73674 16 ft 12 kts 58°
2026-04-26 18:18 39.55784 2.73770 15 ft 12 kts 60°
2026-04-26 18:18 39.55826 2.73865 15 ft 11 kts 59°
2026-04-26 18:18 39.55862 2.73943 16 ft 8 kts 59°
2026-04-26 18:19 39.55894 2.74010 17 ft 10 kts 58°
2026-04-26 18:19 39.55929 2.74083 19 ft 7 kts 58°
2026-04-26 18:19 39.55954 2.74135 21 ft 6 kts 58°
2026-04-26 18:19 39.55990 2.74201 22 ft 9 kts 49°
2026-04-26 18:20 39.56043 2.74258 21 ft 10 kts 34°
2026-04-26 18:20 39.56108 2.74315 19 ft 11 kts 34°
2026-04-26 18:20 39.56129 2.74333 18 ft 0 kts 32°
2026-04-26 18:23 39.56138 2.74341 17 ft 5 kts 32°
2026-04-26 18:23 39.56190 2.74366 17 ft 8 kts 358°
2026-04-26 18:24 39.56234 2.74301 17 ft 14 kts 261°
2026-04-26 18:24 39.56184 2.74179 18 ft 22 kts 239°
2026-04-26 18:24 39.55979 2.73749 14 ft 88 kts 239°
2026-04-26 18:24 39.55556 2.72863 15 ft 141 kts 239°
2026-04-26 18:25 39.54988 2.71638 224 ft 164 kts 240°
2026-04-26 18:25 39.54418 2.70352 759 ft 169 kts 237°
2026-04-26 18:25 39.53729 2.68994 1099 ft 190 kts 235°
2026-04-26 18:25 39.52981 2.67549 1554 ft 204 kts 235°
2026-04-26 18:26 39.52176 2.65963 1970 ft 216 kts 236°
2026-04-26 18:26 39.51339 2.64299 2452 ft 226 kts 236°
2026-04-26 18:26 39.50474 2.62584 3053 ft 230 kts 236°
2026-04-26 18:26 39.49593 2.60840 3663 ft 233 kts 236°
2026-04-26 18:27 39.48700 2.59077 4281 ft 236 kts 236°
2026-04-26 18:27 39.47795 2.57293 4904 ft 238 kts 236°
2026-04-26 18:27 39.46889 2.55508 5504 ft 241 kts 236°
2026-04-26 18:27 39.45960 2.53679 6116 ft 244 kts 236°
2026-04-26 18:28 39.45055 2.51821 6688 ft 248 kts 243°
2026-04-26 18:28 39.44644 2.49609 7021 ft 263 kts 275°
2026-04-26 18:28 39.45171 2.47348 7410 ft 274 kts 303°
2026-04-26 18:28 39.46478 2.45491 7800 ft 283 kts 327°
2026-04-26 18:29 39.48169 2.44215 8405 ft 286 kts 334°
2026-04-26 18:29 39.49956 2.43005 9093 ft 288 kts 334°
2026-04-26 18:29 39.51737 2.41797 9777 ft 292 kts 334°
2026-04-26 18:29 39.53535 2.40570 10419 ft 297 kts 334°
2026-04-26 18:30 39.55337 2.39127 10753 ft 315 kts 324°
2026-04-26 18:30 39.57008 2.37167 11124 ft 331 kts 316°
2026-04-26 18:30 39.58612 2.34945 11500 ft 346 kts 313°
2026-04-26 18:30 39.60238 2.32600 11924 ft 358 kts 313°
2026-04-26 18:31 39.61919 2.30198 12577 ft 363 kts 313°
2026-04-26 18:31 39.63641 2.27780 13243 ft 367 kts 314°
2026-04-26 18:31 39.65381 2.25372 13947 ft 371 kts 314°
2026-04-26 18:31 39.67167 2.22921 14651 ft 375 kts 314°
2026-04-26 18:32 39.68970 2.20455 15368 ft 378 kts 314°
2026-04-26 18:32 39.70780 2.17981 16079 ft 381 kts 314°
2026-04-26 18:32 39.72610 2.15477 16727 ft 386 kts 314°
2026-04-26 18:32 39.74450 2.12956 17361 ft 390 kts 314°
2026-04-26 18:33 39.76327 2.10380 18027 ft 393 kts 314°
2026-04-26 18:33 39.78207 2.07796 18644 ft 397 kts 314°
2026-04-26 18:33 39.80097 2.05197 19302 ft 400 kts 314°
2026-04-26 18:33 39.82036 2.02529 19920 ft 403 kts 314°
2026-04-26 18:34 39.83960 1.99880 20508 ft 407 kts 314°
2026-04-26 18:34 39.85913 1.97189 21093 ft 410 kts 314°
2026-04-26 18:34 39.87874 1.94484 21674 ft 413 kts 314°
2026-04-26 18:34 39.89848 1.91757 22245 ft 416 kts 315°
2026-04-26 18:35 39.91809 1.89045 22856 ft 418 kts 315°
2026-04-26 18:35 39.93828 1.86252 23362 ft 422 kts 315°
2026-04-26 18:35 39.95826 1.83485 23923 ft 424 kts 315°
2026-04-26 18:35 39.97872 1.80698 24435 ft 426 kts 316°
2026-04-26 18:36 40.00045 1.78060 24911 ft 428 kts 322°
2026-04-26 18:36 40.02488 1.75847 25420 ft 429 kts 332°
2026-04-26 18:36 40.05171 1.74074 25890 ft 430 kts 337°
2026-04-26 18:36 40.07922 1.72555 26371 ft 432 kts 340°
2026-04-26 18:37 40.10630 1.71188 26867 ft 433 kts 341°
2026-04-26 18:37 40.13242 1.69911 27282 ft 436 kts 341°
2026-04-26 18:37 40.16267 1.68437 27763 ft 438 kts 341°
2026-04-26 18:37 40.19137 1.67028 28196 ft 441 kts 341°
2026-04-26 18:38 40.21980 1.65616 28624 ft 443 kts 340°
2026-04-26 18:38 40.24865 1.64168 29177 ft 443 kts 340°
2026-04-26 18:38 40.27713 1.62726 29904 ft 438 kts 340°
2026-04-26 18:38 40.30538 1.61285 30434 ft 437 kts 340°
2026-04-26 18:39 40.33400 1.59817 30940 ft 436 kts 339°
2026-04-26 18:39 40.36204 1.58374 31475 ft 435 kts 339°
2026-04-26 18:39 40.39070 1.56894 32030 ft 432 kts 339°
2026-04-26 18:39 40.41860 1.55451 32544 ft 431 kts 339°
2026-04-26 18:40 40.44642 1.54011 33026 ft 429 kts 339°
2026-04-26 18:40 40.47420 1.52570 33114 ft 433 kts 339°
2026-04-26 18:40 40.53039 1.49651 33113 ft 428 kts 339°
2026-04-26 18:41 40.58616 1.46748 33113 ft 429 kts 339°
2026-04-26 18:41 40.64142 1.43866 33113 ft 427 kts 339°
2026-04-26 18:42 40.69711 1.40958 33113 ft 427 kts 339°
2026-04-26 18:42 40.75244 1.38064 33115 ft 427 kts 339°
2026-04-26 18:43 40.80815 1.35145 33114 ft 427 kts 338°
2026-04-26 18:43 40.86208 1.32314 33113 ft 427 kts 338°
2026-04-26 18:44 40.91748 1.29401 33114 ft 427 kts 338°
2026-04-26 18:44 40.97312 1.26470 33115 ft 426 kts 338°
2026-04-26 18:45 41.02831 1.23557 33116 ft 426 kts 338°
2026-04-26 18:45 41.08335 1.20647 33120 ft 425 kts 338°
2026-04-26 18:46 41.13385 1.18033 32951 ft 425 kts 340°
2026-04-26 18:46 41.16460 1.16874 32648 ft 420 kts 348°
2026-04-26 18:46 41.19354 1.16268 32376 ft 420 kts 353°
2026-04-26 18:47 41.22284 1.15921 32137 ft 422 kts 355°
2026-04-26 18:47 41.25219 1.15680 32127 ft 422 kts 356°
2026-04-26 18:47 41.31110 1.15224 32129 ft 425 kts 356°
2026-04-26 18:48 41.37014 1.14714 32130 ft 423 kts 355°
2026-04-26 18:48 41.42891 1.14153 32132 ft 424 kts 355°
2026-04-26 18:49 41.48812 1.13556 32134 ft 429 kts 355°
2026-04-26 18:49 41.54751 1.12939 32131 ft 428 kts 355°
2026-04-26 18:50 41.60698 1.12217 32125 ft 429 kts 351°
2026-04-26 18:50 41.66460 1.10221 32121 ft 428 kts 338°
2026-04-26 18:51 41.71742 1.06516 32113 ft 428 kts 326°
2026-04-26 18:51 41.76234 1.01318 32106 ft 428 kts 313°
2026-04-26 18:52 41.79731 0.94872 32108 ft 429 kts 300°
2026-04-26 18:52 41.82053 0.87484 32111 ft 432 kts 287°
2026-04-26 18:53 41.83542 0.79694 32107 ft 432 kts 286°
2026-04-26 18:53 41.85399 0.72084 32108 ft 431 kts 292°
2026-04-26 18:54 41.87798 0.64653 32109 ft 432 kts 296°
2026-04-26 18:54 41.90433 0.57419 32114 ft 431 kts 298°
2026-04-26 18:55 41.93152 0.50217 32117 ft 432 kts 298°
2026-04-26 18:55 41.95861 0.43073 32115 ft 432 kts 298°
2026-04-26 18:56 41.98594 0.35844 32112 ft 432 kts 298°
2026-04-26 18:56 42.01323 0.28597 32111 ft 432 kts 298°
2026-04-26 18:57 42.03567 0.22617 32113 ft 433 kts 297°
2026-04-26 18:57 42.06733 0.14159 32126 ft 434 kts 298°
2026-04-26 18:58 42.08103 0.10490 32355 ft 437 kts 298°
2026-04-26 18:58 42.09442 0.06897 32957 ft 432 kts 298°
2026-04-26 18:58 42.10806 0.03233 33142 ft 435 kts 298°
2026-04-26 18:58 42.12154 -0.00393 33134 ft 434 kts 298°
2026-04-26 18:59 42.14811 -0.07555 33147 ft 431 kts 298°
2026-04-26 18:59 42.17477 -0.14754 33150 ft 432 kts 298°
2026-04-26 19:00 42.20144 -0.21970 33153 ft 431 kts 298°
2026-04-26 19:00 42.22823 -0.29232 33155 ft 432 kts 298°
2026-04-26 19:01 42.25508 -0.36538 33150 ft 432 kts 297°
2026-04-26 19:01 42.28159 -0.43774 33147 ft 432 kts 298°
2026-04-26 19:02 42.30837 -0.51104 33148 ft 432 kts 298°
2026-04-26 19:02 42.33044 -0.57159 33150 ft 433 kts 297°
2026-04-26 19:03 42.36162 -0.65730 33158 ft 434 kts 297°
2026-04-26 19:03 42.38813 -0.73039 33158 ft 434 kts 297°
2026-04-26 19:04 42.41485 -0.80429 33147 ft 434 kts 297°
2026-04-26 19:04 42.44135 -0.87775 33156 ft 434 kts 297°
2026-04-26 19:05 42.48079 -0.98757 33160 ft 434 kts 297°
2026-04-26 19:06 42.50716 -1.06120 33161 ft 435 kts 297°
2026-04-26 19:06 42.53347 -1.13480 33160 ft 434 kts 297°
2026-04-26 19:07 42.55989 -1.20891 33173 ft 435 kts 296°
2026-04-26 19:07 42.58620 -1.28292 33161 ft 434 kts 297°
2026-04-26 19:08 42.61233 -1.35663 33161 ft 434 kts 297°
2026-04-26 19:08 42.63850 -1.43058 33160 ft 433 kts 297°
2026-04-26 19:09 42.66446 -1.50411 32887 ft 423 kts 297°
2026-04-26 19:09 42.67702 -1.53975 32571 ft 414 kts 297°
2026-04-26 19:09 42.68927 -1.57460 32288 ft 406 kts 297°
2026-04-26 19:09 42.70134 -1.60897 31882 ft 400 kts 297°
2026-04-26 19:10 42.71331 -1.64312 31425 ft 396 kts 296°
2026-04-26 19:10 42.72500 -1.67650 30971 ft 393 kts 296°
2026-04-26 19:10 42.73730 -1.70969 30498 ft 390 kts 300°
2026-04-26 19:10 42.75114 -1.74183 30067 ft 406 kts 302°
2026-04-26 19:11 42.76637 -1.77460 29565 ft 413 kts 303°
2026-04-26 19:11 42.78202 -1.80733 29064 ft 409 kts 304°
2026-04-26 19:11 42.79742 -1.83931 28614 ft 404 kts 303°
2026-04-26 19:11 42.81266 -1.87104 28137 ft 400 kts 303°
2026-04-26 19:12 42.82782 -1.90279 27666 ft 396 kts 303°
2026-04-26 19:12 42.84251 -1.93375 27237 ft 391 kts 303°
2026-04-26 19:12 42.85707 -1.96457 27163 ft 387 kts 303°
2026-04-26 19:12 42.87191 -1.99611 27163 ft 395 kts 303°
2026-04-26 19:13 42.88670 -2.02761 27158 ft 396 kts 303°
2026-04-26 19:13 42.90150 -2.05924 27159 ft 395 kts 303°
2026-04-26 19:13 42.91618 -2.09071 27158 ft 395 kts 303°
2026-04-26 19:13 42.93081 -2.12209 27157 ft 395 kts 303°
2026-04-26 19:14 42.94548 -2.15359 27154 ft 395 kts 303°
2026-04-26 19:14 42.96028 -2.18542 27152 ft 396 kts 303°
2026-04-26 19:14 42.97492 -2.21694 26913 ft 395 kts 303°
2026-04-26 19:14 42.98481 -2.23825 26606 ft 393 kts 302°
2026-04-26 19:15 43.00405 -2.27977 25971 ft 389 kts 302°
2026-04-26 19:15 43.01848 -2.31094 25490 ft 386 kts 303°
2026-04-26 19:15 43.03267 -2.34164 25063 ft 381 kts 302°
2026-04-26 19:15 43.04673 -2.37208 24539 ft 380 kts 302°
2026-04-26 19:16 43.06066 -2.40229 24088 ft 376 kts 302°
2026-04-26 19:16 43.07460 -2.43254 23615 ft 373 kts 302°
2026-04-26 19:16 43.08825 -2.46217 23176 ft 369 kts 302°
2026-04-26 19:16 43.10184 -2.49171 22840 ft 366 kts 302°
2026-04-26 19:17 43.11516 -2.52070 22596 ft 369 kts 302°
2026-04-26 19:17 43.12884 -2.55052 22339 ft 370 kts 302°
2026-04-26 19:17 43.14238 -2.58003 22081 ft 368 kts 302°
2026-04-26 19:17 43.15598 -2.60972 21831 ft 366 kts 302°
2026-04-26 19:18 43.16939 -2.63902 21576 ft 365 kts 302°
2026-04-26 19:18 43.18283 -2.66841 21325 ft 364 kts 302°
2026-04-26 19:18 43.19617 -2.69763 21075 ft 361 kts 302°
2026-04-26 19:18 43.20953 -2.72689 20823 ft 360 kts 302°
2026-04-26 19:19 43.22271 -2.75580 20560 ft 359 kts 302°
2026-04-26 19:19 43.23592 -2.78481 20320 ft 358 kts 302°
2026-04-26 19:19 43.24895 -2.81343 20072 ft 357 kts 302°
2026-04-26 19:19 43.26220 -2.84258 19823 ft 355 kts 301°
2026-04-26 19:20 43.27509 -2.87096 19576 ft 353 kts 301°
2026-04-26 19:20 43.28382 -2.89021 19406 ft 352 kts 301°
2026-04-26 19:20 43.29943 -2.92914 19073 ft 350 kts 294°
2026-04-26 19:20 43.30827 -2.96065 18384 ft 357 kts 287°
2026-04-26 19:21 43.31475 -2.99371 17478 ft 367 kts 282°
2026-04-26 19:21 43.32014 -3.02839 16608 ft 374 kts 281°
2026-04-26 19:21 43.32512 -3.06338 15780 ft 380 kts 281°
2026-04-26 19:21 43.33013 -3.09897 14972 ft 383 kts 281°
2026-04-26 19:22 43.33529 -3.13470 14343 ft 381 kts 282°
2026-04-26 19:22 43.34053 -3.17009 13688 ft 380 kts 282°
2026-04-26 19:22 43.34585 -3.20547 13096 ft 376 kts 282°
2026-04-26 19:22 43.35106 -3.23980 12656 ft 369 kts 282°
2026-04-26 19:23 43.35629 -3.27422 12166 ft 363 kts 282°
2026-04-26 19:23 43.36138 -3.30770 11695 ft 358 kts 282°
2026-04-26 19:23 43.36648 -3.34131 11197 ft 353 kts 282°
2026-04-26 19:23 43.37141 -3.37399 10769 ft 348 kts 282°
2026-04-26 19:24 43.37621 -3.40578 10377 ft 341 kts 283°
2026-04-26 19:24 43.38098 -3.43746 10232 ft 327 kts 283°
2026-04-26 19:24 43.38995 -3.49703 9462 ft 319 kts 283°
2026-04-26 19:25 43.39442 -3.52665 9098 ft 314 kts 283°
2026-04-26 19:25 43.39737 -3.54630 8821 ft 313 kts 283°
2026-04-26 19:25 43.40319 -3.58508 8258 ft 310 kts 283°
2026-04-26 19:25 43.40752 -3.61395 7889 ft 306 kts 283°
2026-04-26 19:26 43.41177 -3.64242 7493 ft 304 kts 283°
2026-04-26 19:26 43.41602 -3.67099 7113 ft 302 kts 282°
2026-04-26 19:26 43.42014 -3.69873 6731 ft 299 kts 282°
2026-04-26 19:26 43.42432 -3.72688 6332 ft 297 kts 282°
2026-04-26 19:27 43.42838 -3.75439 5971 ft 294 kts 282°
2026-04-26 19:27 43.43243 -3.78186 5593 ft 291 kts 282°
2026-04-26 19:27 43.43643 -3.80908 5221 ft 289 kts 283°
2026-04-26 19:27 43.44039 -3.83599 4856 ft 286 kts 282°
2026-04-26 19:28 43.44428 -3.86256 4496 ft 283 kts 283°
2026-04-26 19:28 43.44840 -3.88863 4137 ft 278 kts 287°
2026-04-26 19:28 43.45582 -3.91239 3975 ft 263 kts 307°
2026-04-26 19:28 43.46767 -3.93071 3984 ft 252 kts 318°
2026-04-26 19:29 43.48054 -3.94714 3982 ft 251 kts 319°
2026-04-26 19:29 43.49321 -3.96369 3979 ft 252 kts 317°
2026-04-26 19:29 43.50567 -3.98077 3976 ft 252 kts 316°
2026-04-26 19:29 43.51791 -3.99800 3977 ft 253 kts 316°
2026-04-26 19:30 43.52997 -4.01511 3984 ft 238 kts 316°
2026-04-26 19:30 43.54100 -4.03102 3979 ft 222 kts 314°
2026-04-26 19:30 43.54927 -4.04788 3977 ft 208 kts 293°
2026-04-26 19:30 43.55136 -4.06051 3982 ft 197 kts 274°
2026-04-26 19:31 43.54855 -4.08427 3961 ft 188 kts 252°
2026-04-26 19:31 43.54239 -4.10040 3838 ft 191 kts 229°
2026-04-26 19:31 43.53215 -4.11153 3649 ft 190 kts 207°
2026-04-26 19:31 43.51989 -4.11790 3441 ft 187 kts 190°
2026-04-26 19:32 43.50698 -4.11837 3291 ft 186 kts 166°
2026-04-26 19:32 43.49491 -4.11242 3149 ft 184 kts 148°
2026-04-26 19:32 43.48471 -4.10188 2996 ft 181 kts 129°
2026-04-26 19:32 43.47798 -4.08759 2847 ft 176 kts 109°
2026-04-26 19:33 43.47501 -4.07146 2708 ft 174 kts 93°
2026-04-26 19:33 43.47661 -4.05521 2506 ft 171 kts 66°
2026-04-26 19:33 43.48034 -4.03975 2321 ft 171 kts 78°
2026-04-26 19:33 43.48071 -4.02342 2146 ft 172 kts 96°
2026-04-26 19:34 43.47755 -4.00745 1978 ft 174 kts 107°
2026-04-26 19:34 43.47328 -3.99186 1815 ft 173 kts 108°
2026-04-26 19:34 43.46911 -3.97657 1777 ft 172 kts 108°
2026-04-26 19:34 43.46496 -3.96098 1744 ft 174 kts 107°
2026-04-26 19:35 43.46086 -3.94544 1642 ft 165 kts 108°
2026-04-26 19:35 43.45701 -3.93106 1452 ft 155 kts 108°
2026-04-26 19:35 43.45347 -3.91775 1343 ft 143 kts 108°
2026-04-26 19:35 43.45002 -3.90471 1157 ft 146 kts 108°
2026-04-26 19:36 43.44655 -3.89167 943 ft 146 kts 108°
2026-04-26 19:36 43.44422 -3.88294 804 ft 145 kts 108°
2026-04-26 19:36 43.43962 -3.86562 525 ft 146 kts 109°
2026-04-26 19:36 43.43614 -3.85275 400 ft 143 kts 109°
2026-04-26 19:37 43.43234 -3.83977 144 ft 150 kts 108°
2026-04-26 19:37 43.42867 -3.82617 13 ft 147 kts 103°
2026-04-26 19:37 43.42556 -3.81447 11 ft 99 kts 104°
2026-04-26 19:37 43.42429 -3.80946 14 ft 23 kts 111°
2026-04-26 19:38 43.42360 -3.80753 16 ft 18 kts 125°
2026-04-26 19:38 43.42344 -3.80685 16 ft 4 kts 319°
2026-04-26 19:38 43.42373 -3.80748 15 ft 11 kts 292°
2026-04-26 19:38 43.42405 -3.80874 15 ft 18 kts 289°
2026-04-26 19:39 43.42450 -3.81042 14 ft 18 kts 291°
2026-04-26 19:39 43.42493 -3.81206 12 ft 17 kts 289°
2026-04-26 19:39 43.42451 -3.81313 12 ft 12 kts 208°
2026-04-26 19:39 43.42384 -3.81379 12 ft 11 kts 248°
2026-04-26 19:40 43.42398 -3.81480 11 ft 10 kts 289°
2026-04-26 19:40 43.42430 -3.81604 11 ft 20 kts 289°
2026-04-26 19:40 43.42492 -3.81834 10 ft 25 kts 290°
2026-04-26 19:40 43.42533 -3.82012 10 ft 15 kts 259°
2026-04-26 19:41 43.42451 -3.82084 11 ft 14 kts 199°
2026-04-26 19:41 43.42397 -3.82137 11 ft 9 kts 265°
2026-04-26 19:41 43.42411 -3.82218 11 ft 8 kts 287°
2026-04-26 19:41 43.42423 -3.82267 11 ft 7 kts 289°
2026-04-26 19:42 43.42415 -3.82336 12 ft 3 kts 238°
2026-04-26 19:42 43.42404 -3.82358 12 ft 1 kts 236°
2026-04-26 19:42 43.42403 -3.82359 12 ft 0 kts 236°